Regional Weather Roundup
Issued by NWS

Home | Current Version | Previous Version | Text Only | Print | Product List | Glossary Off
Versions: 1 2 3 4 5 6 7 8 9 10 11 12 13 14 15 16 17 18 19 20 21 22 23 24 25 26 27 28 29 30 31 32 33 34 35 36 37 38 39 40 41 42 43 44 45 46 47 48 49 50

000
ASUS43 KMPX 270501
RWRMN
WEATHER ROUNDUP FOR MINNESOTA
NATIONAL WEATHER SERVICE TWIN CITIES/CHANHASSEN MN
1200 AM CDT SAT AUG 27 2016


NOTE: "FAIR" INDICATES FEW OR NO CLOUDS BELOW 12,000 FEET WITH NO
SIGNIFICANT WEATHER AND/OR OBSTRUCTIONS TO VISIBILITY. N/A MEANS
CURRENT SKY AND/OR WEATHER CONDITIONS ARE NOT AVAILABLE.

MNZ060>063-068>070-270600-
   Twin Cities Metro

CITY           SKY/WX    TMP DP  RH WIND       PRES   REMARKS
TWIN CITIES    CLOUDY    65  55  70 SE5       30.10F
ST PAUL        CLOUDY    63  57  81 SE5       30.11F
CRYSTAL        CLOUDY    64  55  72 CALM      30.09F
BLAINE         CLOUDY    64  55  72 CALM      30.11S
LAKEVILLE      CLOUDY    61  61 100 SE3       30.11F
EDEN PRAIRIE   MOCLDY    65  57  75 SE6       30.09F
LAKEVILLE      CLOUDY    61  61 100 SE3       30.11F
SOUTH ST PAUL  CLOUDY    64  57  77 SE3       30.10F
LAKE ELMO      FAIR      63  57  82 SE5       30.12F
$$
MNZ001>005-007-008-013>017-022>024-027-028-270600-
   Northwest Minnesota

CITY           SKY/WX    TMP DP  RH WIND       PRES   REMARKS
BEMIDJI        CLOUDY    62  54  73 S3        30.07S
HALLOCK        CLEAR     54  52  94 S6        30.00R
ROSEAU         CLEAR     55  48  76 S8        30.03R
WARROAD        CLOUDY    61  55  82 SW5       30.03S
THIEF RVR FALL CLOUDY    60  55  83 S6        30.06R
CROOKSTON      CLEAR     55  54  94 S7        30.05R
FOSSTON        CLOUDY    57  54  88 S5        30.07S
DETROIT LAKES  CLOUDY    63  55  77 S6        30.08S
MOORHEAD       CLOUDY    63  57  82 CALM      30.06S
PARK RAPIDS    CLOUDY    63  53  70 S7        30.08F
MAHNOMEN       CLOUDY    60  55  85 SE3       30.07R
$$
MNZ006-009>011-018-025>026-270600-
   North Central Minnesota

CITY           SKY/WX    TMP DP  RH WIND       PRES   REMARKS
BAUDETTE       CLOUDY    61  53  75 S5        30.04S
FLAG ISLAND    MOCLDY    64  55  72 CALM      30.00S HAZE
INTL FALLS     PTCLDY    59  51  75 CALM      30.06R
WASKISH        CLOUDY    63  55  77 CALM      30.06S
BIG FORK       PTCLDY    57  54  88 CALM      30.09S
LONGVILLE      CLOUDY    61  55  82 S3        30.10S
GRAND RAPIDS   CLOUDY    60  55  83 S6        30.12S
ORR            CLOUDY    57  48  72 CALM      30.07S
COOK           CLOUDY    57  52  82 CALM      30.10S
WALKER         FAIR      61  54  76 CALM      30.08F
$$
MNZ012-019>021-037-270600-
   Northeast Minnesota

CITY           SKY/WX    TMP DP  RH WIND       PRES   REMARKS
DULUTH         CLOUDY    61  54  77 SW7       30.13R
ELY            PTCLDY    57  52  82 S3        30.12S
HIBBING        MOCLDY    52  51  97 CALM      30.11S
EVELETH        CLOUDY    54  53  96 CALM      30.13S
DULUTH HARBOR  CLOUDY    63  57  82 CALM      30.12S
TWO HARBORS    CLOUDY    57  52  82 CALM      30.12R
SILVER BAY     PTCLDY    54  52  94 CALM      30.12S
G MARAIS ARPRT CLOUDY    54  48  82 CALM      30.17S
$$
MNZ029>031-032-039>041-046>048-054>057-064-270600-
   West Central Minnesota

CITY           SKY/WX    TMP DP  RH WIND       PRES   REMARKS
FERGUS FALLS   PTCLDY    61  55  82 S7        30.08S
WHEATON        CLOUDY    63  59  88 SE7       30.08S
MORRIS         DRIZZLE   63  57  82 S5        30.07F
ALEXANDRIA     CLOUDY    63  55  75 S8        30.11S
ELBOW LAKE     FAIR      60  57  88 E7        30.07F
WADENA         CLOUDY    61  54  77 SE6       30.08F
GLENWOOD       CLOUDY    61  57  88 S5        30.10F
APPLETON       CLOUDY    64  55  72 SE5       30.08S
BENSON         CLOUDY    63  55  77 S5        30.09S
ORTONVILLE     CLOUDY    63  57  82 CALM      30.07F
MADISON        CLOUDY    63  59  88 S5        30.08S
WILLMAR        FAIR      63  57  82 SE5       30.11F
$$
MNZ033>034-036-042>043-049>051-058-059-270600-
   Central Minnesota

CITY           SKY/WX    TMP DP  RH WIND       PRES   REMARKS
ST CLOUD       CLOUDY    60  58  92 CALM      30.11R
SAUK CENTRE    MOCLDY    59  56  90 SE3       30.11S
PAYNESVILLE    CLOUDY    63  56  79 SE5       30.11S
AITKIN           N/A     59  54  82 CALM      30.10S
PINE RIVER     CLOUDY    57  55  94 CALM      30.13F
BRAINERD       CLOUDY    59  55  87 CALM      30.11S
STAPLES        CLOUDY    59  54  82 SE5       30.10S
LONG PRAIRIE   MOCLDY    59  55  88 E3        30.10F
LITTLE FALLS   PTCLDY    59  54  82 CALM      30.11S
LITCHFIELD     CLOUDY    63  59  88 CALM      30.12S
BUFFALO        CLOUDY    61  56  82 CALM      30.12S
MAPLE LAKE     CLOUDY    61  59  93 CALM      30.13R
HUTCHINSON     CLEAR     61  58  90 CALM      30.12R
$$
MNZ037-044-045-052-053-270600-
   East Central Minnesota

CITY           SKY/WX    TMP DP  RH WIND       PRES   REMARKS
PRINCETON      PTCLDY    59  55  88 CALM      30.12R
MORA           PTCLDY    55  54  94 CALM      30.14R
CAMBRIDGE      CLOUDY    61  52  72 CALM      30.10S
RUSH CITY      CLOUDY    57  55  92 CALM      30.12S
MOOSE LAKE     CLOUDY    55  54  94 CALM      30.12R
HINCKLEY       FAIR      55  55 100 CALM      30.13R
CLOQUET        CLOUDY    59  54  82 CALM      30.13R
MCGREGOR       PTCLDY    57  54  88 CALM      30.13R
$$
MNZ071>073-080-081-089-090-097-098-270600-
   Southwest Minnesota

CITY           SKY/WX    TMP DP  RH WIND       PRES   REMARKS
MONTEVIDEO     CLOUDY    63  57  82 S7        30.10F
GRANITE FALLS  CLOUDY    63  59  87 SE5       30.11S
CANBY          CLOUDY    63  59  88 E7        30.09S
MARSHALL       PTCLDY    63  59  87 SE5       30.10S
REDWOOD FALLS  MOCLDY    62  57  83 CALM      30.10R
OLIVIA         CLOUDY    63  55  77 CALM      30.09F
PIPESTONE      CLOUDY    63  57  82 SE7       30.09F
WINDOM         MOCLDY    63  57  82 SE5       30.11R
WORTHINGTON    CLOUDY    60  59  96 E3        30.11S
JACKSON          N/A     61  57  88 SE5       30.11S
TRACY          CLOUDY    63  59  87 S6        30.10S
SLAYTON        CLOUDY    61  59  94 SE5       30.12R
$$
MNZ065>067-074>077-082>085-091>093-270600-
   South Central Minnesota

CITY           SKY/WX    TMP DP  RH WIND       PRES   REMARKS
MANKATO        CLOUDY    64  57  77 SE8       30.10F
NEW ULM          N/A     63  57  82 SE3       30.10S
ST JAMES       PTCLDY    55  54  94 SE5       30.11S
FAIRMONT       CLOUDY    62  58  86 SE6       30.11S
GLENCOE        PTCLDY    63  60  91 CALM      30.10S
FARIBAULT      CLOUDY    64  59  82 E3        30.11F
OWATONNA       MOCLDY    63  59  88 E3        30.11F
WASECA         MOCLDY    63  59  88 E6        30.11F
ALBERT LEA     CLOUDY    64  57  77 E6        30.12F
$$
MNZ078>079-086>088-094>096-270600-
   Southeast Minnesota

CITY           SKY/WX    TMP DP  RH WIND       PRES   REMARKS
ROCHESTER      CLOUDY    62  59  90 SE3       30.15R
RED WING       CLOUDY    63  59  88 CALM      30.11F
STANTON        CLOUDY    64  55  72 SE6       30.10F
DODGE CENTER   PTCLDY    61  57  88 SE6       30.13F
WINONA         DRIZZLE   63  61  94 CALM      30.13F
AUSTIN         CLOUDY    61  57  88 E3        30.12S
PRESTON        CLOUDY    61  58  91 S3        30.14F
$$
ABBREVIATIONS USED IN REMARKS
   TC - TEMPERATURES IN CELSIUS
  WCI - WIND CHILL INDEX
   HX - HEAT INDEX
  VSB - VISIBILITY
$$




USA.gov is the U.S. government's official web portal to all federal, state and local government web resources and services.